Regional Weather Roundup
Issued by NWS

Home | Current Version | Previous Version | Text Only | Print | Product List | Glossary Off
Versions: 1 2 3 4 5 6 7 8 9 10 11 12 13 14 15 16 17 18 19 20 21 22 23 24 25 26 27 28 29 30 31 32 33 34 35 36 37 38 39 40 41 42 43 44 45 46 47 48 49 50

000
ASUS43 KMPX 250210
RWRMN
WEATHER ROUNDUP FOR MINNESOTA
NATIONAL WEATHER SERVICE TWIN CITIES/CHANHASSEN MN
800 PM CST SAT JAN 24 2015


NOTE: "FAIR" INDICATES FEW OR NO CLOUDS BELOW 12,000 FEET WITH NO
SIGNIFICANT WEATHER AND/OR OBSTRUCTIONS TO VISIBILITY. N/A MEANS
CURRENT SKY AND/OR WEATHER CONDITIONS ARE NOT AVAILABLE.

MNZ060>063-068>070-250300-
   Twin Cities Metro

CITY           SKY/WX    TMP DP  RH WIND       PRES   REMARKS
TWIN CITIES    CLOUDY    38  30  73 CALM      29.61R
ST PAUL        CLOUDY    36  31  82 CALM      29.62S
CRYSTAL        CLOUDY    35  31  85 N5        29.60S WCI  31
LAKEVILLE      MOCLDY    32  30  93 CALM      29.60S
EDEN PRAIRIE   CLOUDY    35  31  85 N3        29.60R
SOUTH ST PAUL  CLOUDY    36  32  86 CALM      29.61S
LAKE ELMO      CLOUDY    36  32  87 CALM      29.62S
$$
MNZ001>005-007-008-013>017-022>024-027-028-250300-
   Northwest Minnesota

CITY           SKY/WX    TMP DP  RH WIND       PRES   REMARKS
BEMIDJI        CLOUDY    28  23  82 NE9       29.70R WCI  19
HALLOCK        CLOUDY    23  18  80 E10       29.80S WCI  12
ROSEAU         CLOUDY    18  10  73 NE18      29.82R WCI   2
WARROAD        CLOUDY    16   9  73 NE15      29.84R WCI   1
THIEF RVR FALL CLOUDY    25  16  68 N13       29.77R WCI  13
CROOKSTON      CLOUDY    28  23  80 NE12      29.78R WCI  18
FOSSTON        CLOUDY    25  21  86 NE9       29.74R WCI  15
DETROIT LAKES  CLOUDY    34  32  93 N6        29.68R WCI  29
MOORHEAD       CLOUDY    34  34 100 N14       29.71R WCI  24
PARK RAPIDS    CLOUDY    34  28  79 N7        29.65R WCI  28
MAHNOMEN       CLOUDY    30  26  85 N17       29.70R WCI  18
$$
MNZ006-009>011-018-025>026-250300-
   North Central Minnesota

CITY           SKY/WX    TMP DP  RH WIND       PRES   REMARKS
BAUDETTE       CLOUDY    14   6  70 NE9       29.81R WCI   2
FLAG ISLAND    CLOUDY    12   3  67 NE10      29.85R WCI  -1
INTL FALLS     CLEAR     11   4  73 NE7       29.81R WCI   0
WASKISH        PTCLDY    18  10  73 NE9       29.77R WCI   6
BIG FORK       CLEAR     21  10  63 N7        29.74R WCI  13
LONGVILLE      CLOUDY    34  27  75 NE6       29.66R WCI  29
GRAND RAPIDS   CLOUDY    28  21  74 N5        29.69R WCI  23
CRANE LAKE     CLEAR     10   5  79 N5        29.82R WCI   2
ORR            CLEAR     14   5  67 CALM      29.74R
COOK           CLEAR     16   9  73 NE6       29.76R WCI   7
WALKER         CLOUDY    29  24  80 N9        29.68R WCI  21
$$
MNZ012-019>021-037-250300-
   Northeast Minnesota

CITY           SKY/WX    TMP DP  RH WIND       PRES   REMARKS
DULUTH         CLOUDY    25  20  81 E22       29.70R WCI  10
ELY            CLEAR     12   7  79 NE7       29.76R WCI   2
HIBBING        CLOUDY    28  17  63 NE9       29.70R WCI  19
EVELETH        CLOUDY    25  18  74 NE10      29.72R WCI  15
DULUTH HARBOR  CLOUDY    28  25  86 E22       29.75R WCI  15
TWO HARBORS    CLOUDY    27  21  80 E20G28    29.73R WCI  13
SILVER BAY     CLOUDY    25  16  68 NE12      29.74R WCI  14
GRAND MARAIS     N/A     15   2  56 N8G18     29.83R WCI   4
G MARAIS ARPRT PTCLDY     7  -2  66 N10       29.73S WCI  -8
$$
MNZ029>031-032-039>041-046>048-054>057-064-250300-
   West Central Minnesota

CITY           SKY/WX    TMP DP  RH WIND       PRES   REMARKS
FERGUS FALLS   MIX PCPN  34  32  93 CALM      29.68R
WHEATON        CLOUDY    30  28  93 NW7       29.67R WCI  23
MORRIS         MOCLDY    34  30  86 N7        29.61R WCI  28
ALEXANDRIA     LGT SNOW  33  30  88 NE7       29.62R FOG     WCI  27
ELBOW LAKE     CLOUDY    32  31  94 NE3       29.63R
WADENA         CLOUDY    30  30 100 N6        29.64R WCI  24
GLENWOOD       MOCLDY    34  30  86 NE8       29.62R WCI  27
APPLETON       CLOUDY    34  30  86 N6        29.61R WCI  29
BENSON         CLOUDY    32  30  93 N3        29.61R
ORTONVILLE     FLURRIES  32  30  93 NW7       29.62R WCI  26
MADISON        CLOUDY    37  36  93 N6        29.61R
WILLMAR        FAIR      34  30  86 N5        29.61R WCI  30
$$
MNZ033>034-036-042>043-049>051-058-059-250300-
   Central Minnesota

CITY           SKY/WX    TMP DP  RH WIND       PRES   REMARKS
ST CLOUD       CLOUDY    36  31  82 NE5       29.61R
SAUK CENTRE    CLOUDY    34  31  88 NE6       29.61R WCI  29
PAYNESVILLE    CLOUDY    31  30  96 CALM      29.61R
AITKIN         CLOUDY    37  28  70 NE6       29.63S
PINE RIVER     CLOUDY    34  28  80 NE3       29.69R
BRAINERD       CLOUDY    34  29  82 E7        29.64R WCI  28
STAPLES        CLOUDY    30  30 100 CALM      29.63R
LONG PRAIRIE   FLURRIES  32  30  93 N6        29.62R WCI  26
LITTLE FALLS   CLOUDY    34  30  86 CALM      29.63R
LITCHFIELD     CLOUDY    34  34 100 CALM      29.60R
BUFFALO        CLOUDY    33  31  92 CALM      29.61S
MAPLE LAKE     CLOUDY    34  33  95 CALM      29.61S
$$
MNZ037-044-045-052-053-250300-
   East Central Minnesota

CITY           SKY/WX    TMP DP  RH WIND       PRES   REMARKS
PRINCETON      CLOUDY    37  30  75 NE5       29.62R
MORA           CLOUDY    36  30  80 CALM      29.65R
CAMBRIDGE      CLOUDY    37  28  70 CALM      29.61R
RUSH CITY      CLOUDY    35  30  80 NE5       29.63S WCI  31
MOOSE LAKE     CLOUDY    30  27  86 NE12      29.66R WCI  21
HINCKLEY       CLOUDY    36  30  80 NE7       29.64R
CLOQUET        CLOUDY    25  21  86 E17G25    29.69R WCI  11
MCGREGOR       CLOUDY    34  30  86 NE6       29.65S WCI  29
$$
MNZ071>073-080-081-089-090-097-098-250300-
   Southwest Minnesota

CITY           SKY/WX    TMP DP  RH WIND       PRES   REMARKS
MONTEVIDEO     CLOUDY    34  30  86 N3        29.61R
GRANITE FALLS  LGT RAIN  33  32  96 CALM      29.61R
CANBY          RAIN      34  33  96 N5        29.61R WCI  30
MARSHALL       CLOUDY    34  32  93 NW3       29.60S
REDWOOD FALLS  CLOUDY    36  31  82 NW5       29.58S
OLIVIA         CLOUDY    32  32 100 N5        29.58S WCI  27
PIPESTONE      CLOUDY    36  34  93 CALM      29.55S
WINDOM         CLOUDY    36  34  93 CALM      29.57S
WORTHINGTON    CLOUDY    36  30  80 CALM      29.57F
JACKSON        CLOUDY    36  32  87 W3        29.56F
TRACY          RAIN      36  34  94 N7        29.58S
SLAYTON        DRIZZLE   33  32  94 CALM      29.58R
$$
MNZ065>067-074>077-082>085-091>093-250300-
   South Central Minnesota

CITY           SKY/WX    TMP DP  RH WIND       PRES   REMARKS
MANKATO        CLOUDY    36  30  80 N7        29.58S
NEW ULM        MOCLDY    34  34 100 N3        29.58R
ST JAMES       CLOUDY    36  34  93 CALM      29.59S
FAIRMONT       CLOUDY    34  28  80 CALM      29.57S
GLENCOE        CLOUDY    32  32 100 CALM      29.59S
FARIBAULT      CLOUDY    34  30  86 CALM      29.60R
OWATONNA       CLOUDY    36  34  93 CALM      29.58F
WASECA         CLOUDY    32  32 100 CALM      29.59S
ALBERT LEA     MOCLDY    34  34 100 CALM      29.57F
$$
MNZ078>079-086>088-094>096-250300-
   Southeast Minnesota

CITY           SKY/WX    TMP DP  RH WIND       PRES   REMARKS
ROCHESTER      CLOUDY    34  31  88 SE3       29.59S
RED WING       CLOUDY    32  28  86 CALM      29.62R
STANTON        CLOUDY    34  31  90 E3        29.59S
DODGE CENTER   CLOUDY    34  34 100 CALM      29.59R
WINONA         CLOUDY    34  32  93 CALM      29.63S
AUSTIN         MOCLDY    34  30  86 CALM      29.58S
PRESTON        CLOUDY    33  32  94 CALM      29.60S
$$
ABBREVIATIONS USED IN REMARKS
   TC - TEMPERATURES IN CELSIUS
  WCI - WIND CHILL INDEX
   HX - HEAT INDEX
  VSB - VISIBILITY
$$



USA.gov is the U.S. government's official web portal to all federal, state and local government web resources and services.